| time (UTC) | temp F | wind direction | speed MPH | gust MPH | rain 1hr in | rain 24hr in | rain mn in | humidity % | barometer mb |
| 20260507080024 | 45 | 78 | 6.0 | 12.0 | 0.00 | 0.00 | 0.00 | 91 | 1010.5 |
| 20260507074544 | 45 | 26 | 7.0 | 12.0 | 0.00 | 0.01 | 0.00 | 91 | 1010.3 |
| 20260507073021 | 45 | 51 | 4.0 | 10.0 | 0.00 | 0.01 | 0.00 | 91 | 1010.2 |
| 20260507071519 | 45 | 81 | 3.0 | 9.0 | 0.00 | 0.01 | 0.00 | 90 | 1010.1 |
| 20260507070021 | 45 | 44 | 3.0 | 9.0 | 0.00 | 0.01 | 0.00 | 90 | 1010.0 |
| 20260507064517 | 45 | 61 | 6.0 | 11.0 | 0.00 | 0.02 | 0.00 | 90 | 1009.9 |
| 20260507063022 | 45 | 25 | 3.0 | 9.0 | 0.00 | 0.02 | 0.00 | 90 | 1009.8 |
| 20260507061514 | 45 | 360 | 4.0 | 8.0 | 0.00 | 0.02 | 0.00 | 90 | 1009.6 |
| 20260507060010 | 45 | 49 | 2.0 | 9.0 | 0.00 | 0.02 | 0.00 | 90 | 1009.3 |
| 20260507054512 | 45 | 54 | 4.0 | 7.0 | 0.00 | 0.06 | 0.00 | 90 | 1009.2 |
| 20260507053008 | 45 | 44 | 4.0 | 10.0 | 0.00 | 0.06 | 0.00 | 90 | 1009.1 |
| 20260507051508 | 44 | 72 | 5.0 | 10.0 | 0.00 | 0.06 | 0.00 | 90 | 1009.0 |
| 20260507050017 | 44 | 76 | 7.0 | 11.0 | 0.00 | 0.06 | 0.00 | 90 | 1009.0 |
| 20260507044502 | 44 | 59 | 5.0 | 9.0 | 0.00 | 0.19 | 0.00 | 90 | 1008.8 |
| 20260507043002 | 44 | 62 | 4.0 | 9.0 | 0.00 | 0.19 | 0.00 | 90 | 1008.6 |
| 20260507041604 | 44 | 23 | 5.0 | 12.0 | 0.00 | 0.19 | 0.00 | 90 | 1008.6 |
| 20260507040056 | 44 | 78 | 3.0 | 9.0 | 0.00 | 0.19 | 0.00 | 90 | 1008.5 |
| 20260507034600 | 44 | 49 | 3.0 | 11.0 | 0.00 | 0.26 | 0.00 | 90 | 1008.4 |
| 20260507033100 | 44 | 55 | 4.0 | 9.0 | 0.00 | 0.26 | 0.00 | 90 | 1008.4 |
| 20260507031605 | 45 | 42 | 4.0 | 10.0 | 0.00 | 0.26 | 0.00 | 90 | 1008.2 |
| 20260507030055 | 45 | 69 | 5.0 | 9.0 | 0.00 | 0.26 | 0.00 | 90 | 1008.0 |
| 20260507024548 | 45 | 66 | 5.0 | 10.0 | 0.00 | 0.33 | 0.00 | 90 | 1007.8 |
| 20260507023051 | 45 | 63 | 5.0 | 13.0 | 0.00 | 0.33 | 0.00 | 91 | 1007.8 |
| 20260507021545 | 45 | 46 | 5.0 | 10.0 | 0.00 | 0.33 | 0.00 | 91 | 1007.8 |
| 20260507020047 | 45 | 50 | 5.0 | 14.0 | 0.00 | 0.33 | 0.00 | 92 | 1007.7 |
| 20260507014549 | 45 | 9 | 4.0 | 13.0 | 0.00 | 0.40 | 0.00 | 92 | 1007.7 |
| 20260507013039 | 45 | 5 | 5.0 | 10.0 | 0.00 | 0.40 | 0.00 | 91 | 1007.5 |
| 20260507011538 | 46 | 44 | 7.0 | 12.0 | 0.00 | 0.40 | 0.00 | 90 | 1007.3 |
| 20260507010035 | 47 | 46 | 7.0 | 13.0 | 0.00 | 0.40 | 0.00 | 89 | 1007.2 |
| 20260507004528 | 48 | 59 | 6.0 | 15.0 | 0.00 | 0.56 | 0.00 | 89 | 1007.1 |
| 20260507003025 | 49 | 57 | 4.0 | 12.0 | 0.00 | 0.56 | 0.00 | 88 | 1006.8 |
| 20260507001526 | 49 | 46 | 7.0 | 13.0 | 0.00 | 0.56 | 0.00 | 87 | 1006.6 |
| 20260507000031 | 50 | 46 | 7.0 | 13.0 | 0.00 | 0.56 | 0.00 | 87 | 1006.6 |
| 20260506234516 | 50 | 61 | 4.0 | 7.0 | 0.00 | 0.66 | 0.00 | 87 | 1006.5 |
| 20260506233017 | 50 | 64 | 4.0 | 8.0 | 0.00 | 0.66 | 0.00 | 87 | 1006.6 |
| 20260506231517 | 50 | 51 | 4.0 | 9.0 | 0.00 | 0.66 | 0.00 | 88 | 1006.7 |
| 20260506230001 | 50 | 5 | 4.0 | 10.0 | 0.00 | 0.66 | 0.00 | 88 | 1006.4 |
| 20260506224602 | 50 | 45 | 3.0 | 6.0 | 0.00 | 0.70 | 0.00 | 88 | 1006.4 |
| 20260506223104 | 50 | 51 | 2.0 | 6.0 | 0.00 | 0.70 | 0.00 | 87 | 1006.5 |
| 20260506221559 | 50 | 65 | 3.0 | 6.0 | 0.00 | 0.70 | 0.00 | 87 | 1006.4 |
| 20260506220054 | 50 | 49 | 3.0 | 7.0 | 0.00 | 0.70 | 0.00 | 87 | 1006.3 |
| 20260506214554 | 50 | 49 | 2.0 | 6.0 | 0.00 | 0.70 | 0.70 | 87 | 1006.3 |
| 20260506213110 | 51 | 65 | 3.0 | 9.0 | 0.00 | 0.70 | 0.70 | 86 | 1006.3 |
| 20260506211551 | 51 | 39 | 3.0 | 12.0 | 0.00 | 0.70 | 0.70 | 86 | 1006.1 |
| 20260506210050 | 51 | 38 | 4.0 | 11.0 | 0.00 | 0.70 | 0.70 | 86 | 1006.2 |
| 20260506204551 | 51 | 45 | 8.0 | 12.0 | 0.00 | 0.70 | 0.70 | 86 | 1006.0 |
| 20260506203044 | 51 | 32 | 4.0 | 10.0 | 0.00 | 0.70 | 0.70 | 87 | 1006.0 |
| 20260506201542 | 52 | 61 | 3.0 | 12.0 | 0.00 | 0.70 | 0.70 | 87 | 1005.9 |
| 20260506200038 | 52 | 42 | 5.0 | 11.0 | 0.00 | 0.70 | 0.70 | 88 | 1005.9 |
| 20260506194538 | 52 | 39 | 4.0 | 11.0 | 0.00 | 0.71 | 0.70 | 88 | 1005.6 |
| 20260506193035 | 53 | 47 | 4.0 | 10.0 | 0.00 | 0.71 | 0.70 | 88 | 1005.5 |
| 20260506191534 | 53 | 36 | 5.0 | 9.0 | 0.00 | 0.71 | 0.70 | 87 | 1005.4 |
| 20260506190017 | 53 | 69 | 5.0 | 11.0 | 0.00 | 0.71 | 0.70 | 87 | 1005.1 |
| 20260506184516 | 53 | 70 | 4.0 | 8.0 | 0.00 | 0.71 | 0.70 | 88 | 1004.9 |
| 20260506183016 | 53 | 5 | 4.0 | 11.0 | 0.00 | 0.71 | 0.70 | 88 | 1004.9 |
| 20260506181514 | 54 | 46 | 3.0 | 9.0 | 0.00 | 0.71 | 0.70 | 88 | 1004.9 |
| 20260506180014 | 54 | 22 | 5.0 | 9.0 | 0.00 | 0.71 | 0.70 | 88 | 1004.6 |
| 20260506174513 | 54 | 360 | 3.0 | 9.0 | 0.00 | 0.71 | 0.70 | 88 | 1004.5 |
| 20260506173013 | 54 | 38 | 2.0 | 6.0 | 0.00 | 0.71 | 0.70 | 88 | 1004.5 |
| 20260506171512 | 54 | 38 | 4.0 | 10.0 | 0.00 | 0.71 | 0.70 | 87 | 1004.4 |
| 20260506170011 | 55 | 67 | 3.0 | 9.0 | 0.00 | 0.71 | 0.70 | 87 | 1004.3 |
| 20260506164510 | 55 | 77 | 5.0 | 11.0 | 0.00 | 0.71 | 0.70 | 87 | 1004.3 |
| 20260506163021 | 55 | 63 | 5.0 | 11.0 | 0.00 | 0.71 | 0.70 | 87 | 1004.3 |
| 20260506161509 | 55 | 50 | 4.0 | 9.0 | 0.00 | 0.71 | 0.70 | 87 | 1004.2 |
| 20260506160016 | 55 | 5 | 5.0 | 9.0 | 0.00 | 0.71 | 0.70 | 86 | 1004.4 |
| 20260506154508 | 55 | 61 | 3.0 | 10.0 | 0.00 | 0.71 | 0.70 | 85 | 1004.4 |
| 20260506153007 | 55 | 53 | 5.0 | 11.0 | 0.00 | 0.71 | 0.70 | 85 | 1004.4 |
| 20260506151507 | 55 | 15 | 5.0 | 11.0 | 0.00 | 0.71 | 0.70 | 86 | 1004.5 |
| 20260506150005 | 56 | 76 | 4.0 | 10.0 | 0.00 | 0.71 | 0.70 | 86 | 1004.6 |
| 20260506144504 | 56 | 355 | 4.0 | 9.0 | 0.00 | 0.71 | 0.70 | 86 | 1004.5 |
| 20260506143003 | 56 | 5 | 3.0 | 9.0 | 0.00 | 0.71 | 0.70 | 87 | 1004.5 |
| 20260506141503 | 55 | 71 | 4.0 | 9.0 | 0.00 | 0.71 | 0.70 | 87 | 1004.4 |
| 20260506140001 | 56 | 62 | 3.0 | 11.0 | 0.00 | 0.71 | 0.70 | 87 | 1004.5 |
| 20260506134501 | 55 | 313 | 4.0 | 6.0 | 0.00 | 0.71 | 0.70 | 86 | 1004.5 |
| 20260506133001 | 55 | 15 | 3.0 | 7.0 | 0.00 | 0.71 | 0.70 | 87 | 1004.5 |
| 20260506131604 | 55 | 318 | 3.0 | 8.0 | 0.00 | 0.71 | 0.70 | 89 | 1004.5 |
| 20260506124559 | 55 | 349 | 4.0 | 9.0 | 0.00 | 0.71 | 0.70 | 88 | 1004.4 |
| 20260506123058 | 55 | 26 | 3.0 | 10.0 | 0.00 | 0.71 | 0.70 | 89 | 1004.3 |
| 20260506121559 | 55 | 333 | 5.0 | 9.0 | 0.00 | 0.71 | 0.70 | 90 | 1004.4 |
| 20260506120100 | 55 | 336 | 2.0 | 6.0 | 0.00 | 0.71 | 0.70 | 90 | 1004.3 |
| 20260506114605 | 54 | 5 | 2.0 | 5.0 | 0.00 | 0.71 | 0.70 | 90 | 1004.4 |
| 20260506113056 | 54 | 348 | 2.0 | 6.0 | 0.00 | 0.71 | 0.70 | 90 | 1004.3 |
| 20260506111555 | 54 | 344 | 2.0 | 4.0 | 0.00 | 0.71 | 0.70 | 91 | 1004.2 |
| 20260506104554 | 54 | 345 | 3.0 | 9.0 | 0.00 | 0.71 | 0.70 | 91 | 1003.9 |
| 20260506103054 | 54 | 326 | 2.0 | 8.0 | 0.00 | 0.71 | 0.70 | 92 | 1003.8 |
| 20260506101603 | 54 | 22 | 3.0 | 8.0 | 0.00 | 0.71 | 0.70 | 93 | 1003.5 |
| 20260506100052 | 54 | 345 | 4.0 | 9.0 | 0.00 | 0.71 | 0.70 | 94 | 1003.5 |
| 20260506094615 | 54 | 342 | 5.0 | 10.0 | 0.00 | 0.72 | 0.70 | 95 | 1003.3 |
| 20260506093055 | 54 | 15 | 5.0 | 10.0 | 0.00 | 0.72 | 0.70 | 96 | 1003.1 |
| 20260506091551 | 54 | 347 | 6.0 | 11.0 | 0.00 | 0.72 | 0.70 | 96 | 1002.9 |
| 20260506090050 | 53 | 5 | 4.0 | 11.0 | 0.00 | 0.72 | 0.70 | 97 | 1002.8 |
| 20260506084549 | 53 | 336 | 5.0 | 12.0 | 0.00 | 0.72 | 0.70 | 97 | 1002.6 |
| 20260506083047 | 53 | 323 | 4.0 | 10.0 | 0.00 | 0.72 | 0.70 | 97 | 1002.6 |
| 20260506081545 | 53 | 360 | 4.0 | 6.0 | 0.00 | 0.72 | 0.70 | 97 | 1002.6 |